Overview Statistics Trail Chart Weather Telemetry Raw packets
 

This is the latest recevied weather packets stored in our database for station/object OE2WNL. If no packets are shown the sender has not sent any weather packets the latest 10 day(s).

<< 1 2 3 4 5 6 7 >>
Time Temp. Humidity Pressure Rain* Wind** Luminosity Snow
1788545659 23.33° C 48% 1013.9 hPa 0 mm - - -
1788545359 22.78° C 49% 1014 hPa 0 mm - - -
1788545050 22.78° C 51% 1014.1 hPa 0 mm - - -
1788544740 23.33° C 50% 1013.7 hPa 0 mm - - -
1788544430 24.44° C 48% 1013.5 hPa 0 mm - - -
1788544130 24.44° C 46% 1013.5 hPa 0 mm - - -
1788543829 25° C 45% 1013.5 hPa 0 mm - - -
1788543529 25.56° C 43% 1013.1 hPa 0 mm - - -
1788543229 25.56° C 45% 1013.4 hPa 0 mm - - -
1788542941 26.11° C 44% 1013.3 hPa 0 mm - - -
1788542629 26.11° C 44% 1013.1 hPa 0 mm - - -
1788542319 27.22° C 42% 1012.9 hPa 0 mm - - -
1788542019 27.22° C 40% 1012.6 hPa 0 mm - - -
1788541709 27.22° C 40% 1012.9 hPa 0 mm - - -
1788541400 27.78° C 39% 1012.8 hPa 0 mm - - -
1788541100 27.22° C 38% 1012.6 hPa 0 mm - - -
1788540800 28.33° C 37% 1012.6 hPa 0 mm - - -
1788540500 29.44° C 35% 1012.4 hPa 0 mm - - -
1788540200 28.89° C 34% 1012.4 hPa 0 mm - - -
1788539900 30° C 34% 1012.1 hPa 0 mm - - -
1788539590 29.44° C 33% 1012.2 hPa 0 mm - - -
1788539290 30° C 35% 1012.4 hPa 0 mm - - -
1788538980 29.44° C 33% 1012.4 hPa 0 mm - - -
1788538670 29.44° C 32% 1012.6 hPa 0 mm - - -
1788538370 30° C 33% 1012.2 hPa 0 mm - - -

* Rain latest hour (hover to see other rain measurements)
** Current wind speed in m/s (hover to see current wind gust speed)